Погода Владимир-Волынский

Погода Владимир-Волынский : погода сейчас, прогноз погоды и архив. Всё, что Вы хотите узнать о погоде Владимир-Волынский!

Хотите узнать прогноз погоды Владимир-Волынский? Тогда Вам сюда: Погода Владимир-Волынский

Поиск расширенной информации на нашем сайте:

Другие новости

Новости СМИ2

Главная страница сайта

Новости сайта

03.07.2017

Напоминаем, что на нашем специализированном сайте Метеоцентр.Азия вы можете получить высокодетализированные автоматические прогнозы погоды по пунктам России, СНГ и мира в авиационном формате (включающие направление и скорость ветра, видимость, явления погоды, количество и форму облачности, нижнюю и верхнюю границу облачности).

Рекомендуем: Световое шоу flagro светодиодные крылья.

Погода Владимир-Волынский - сегодня

Время (UTC), дата Ветер
(°,м/с) 
Видим.   Явления Облачность Т
(°С)
Тd
(°С)
f(%) Тe
(°С)
Pmin
(гПа)
dP
(гПа)
Po
(мм)
O2
(г/м3)
Тmin Tmax R s Состояние
почвы
06 19.09.17 170 (Ю) 20000 м    8/0 верхняя 
[Ci fib]
+7.6 +6.1 90 +8  1019  0.8  746  292  +5.1         
12 19.09.17 110 (В) 20000 м    9/9 600 м кучево-дожд. 
[Cb cap]
+17.2 +10.3 64 +20  1017.1  -0.8  746  281           
15 19.09.17 090 (В) 20000 м    10/10 600 м 
[Sc]
+15.5 +9.6 68 +17  1016.5  -0.7  745  282           
18 19.09.17 050 (СВ) 10 км  в посл. час ливневой дождь  10/10 600 м кучево-дожд. 
[Cb cap]
+12.6 +10.3 86 +15  1016.1  -0.7  745  285    +17.5  0.4     
21 19.09.17 060 (СВ) 10 км  {ливн. осадки}  10/10 600 м кучево-дожд. 
[Cb cap]
+12.4 +10.5 88 +16  1016.2  0.1  745  285           
00 20.09.17 060 (СВ) 4000 м  слаб. ливневой дождь  10/10 600 м кучево-дожд. 
[Cb cap]
+11.4 +9.8 90 +12  1014.7  -1.5  744  286      11     
03 20.09.17 060 (СВ) 10 км    10/10 600 м кучево-дожд. 
[Cb cap]
+11 +9.4 90 +11  1013.9  -0.8  743  286           
06 20.09.17 070 (В) 10 км  {ливн. осадки}  10/10 600 м кучево-дожд. 
[Cb cap]
+11.6 +9.8 89 +12  1013.3  -0.6  743  285  +10.9    12     
09 20.09.17 090 (В) 20000 м    10/10 600 м кучево-дожд. 
[Cb cap]
+13.6 +10.6 82 +16  1013.5  0.4  743  283           
12 20.09.17 100 (В) 20000 м    9/9 600 м 
[Sc]
+16.2 +12.6 79 +22  1013  -0.3  743  280           
15 20.09.17 040 (СВ) 20000 м    8/4 600 м средняя, верхняя 
[Sc|Ac und|Ci fib]
+16.2 +12.2 77 +21  1012.8  -0.2  743  280           
18 20.09.17 010 (С) 10 км    3/0 средняя 
[Ac und]
+13.4 +11.5 88 +16  1012.8  -0.2  742  283    +16.7       
21 20.09.17 030 (СВ) 4000 м  дымка  10/10 600 м кучево-дожд. 
[Cb cap]
+13 +11.1 88 +16  1012.2  -0.6  742  283           
00 21.09.17 020 (С) 4000 м  слаб. ливневой дождь  10/10 600 м кучево-дожд. 
[Cb cap]
+12.6 +12 96 +17  1010.8  -1.4  741  283         
03 21.09.17 360 (С) 4000 м  в посл. час ливневой дождь  10/10 600 м кучево-дожд. 
[Cb cap]
+12 +11.4 96 +15  1008.2  -2.6  739  283           
06 21.09.17 040 (СВ) 4000 м  дымка{ливн. осадки}  10/10 600 м кучево-дожд. 
[Cb cap]
+12.2 +11.3 94 +15  1008.9  0.7  739  283  +11.9       
09 21.09.17 030 (СВ) 10 км  {ливн. осадки}  10/10 600 м кучево-дожд. 
[Cb cap]
+13 +11.7 92 +17  1009.3  0.4  740  282           
12 21.09.17 030 (СВ) 10 км  {ливн. осадки}  10/10 600 м кучево-дожд. 
[Cb cap]
+13.4 +12.1 92 +17  1009.7  0.5  740  282      0.0     
15 21.09.17 020 (С) 4000 м  слаб. ливневой дождь  10/10 600 м кучево-дожд. 
[Cb cap]
+13.6 +12.9 96 +21  1010.4  0.7  741  282           
18 21.09.17 тихо ()   4000 м  в посл. час морось{ливн. осадки}  10/10 300 м 
[St]
+13.4 +12.7 96 +19  1011.2  0.7  741  282    +13.7  0.4     
21 21.09.17 280 (З) 4000 м  дымка  10/10 300 м 
[St]
+13.2 +12.5 96 +19  1011.6  0.4  741  283           
00 22.09.17 тихо ()   4000 м  дымка  10/10 300 м 
[St]
+13 +12.4 96 +18  1012.4  0.8  742  283           
03 22.09.17 270 (З) 4000 м  дымка  10/10 300 м 
[St]
+13 +12.4 96 +18  1013.9  1.4  743  283           
06 22.09.17 290 (З) 4000 м  дымка  10/10 300 м 
[St]
+13.1 +12.4 96 +19  1014.3  0.4  743  283  +12.9         
09 22.09.17 300 (СЗ) 10 км    10/10 600 м кучево-дожд. 
[Cb cap]
+13.6 +12.1 91 +18  1014.9  0.7  744  283           
Время (UTC), дата Ветер
(°,м/с) 
Видим.   Явления Облачность Т
(°С)
Тd
(°С)
f(%) Тe
(°С)
Pmin
(гПа)
dP
(гПа)
Po
(мм)
O2
(г/м3)
Тmin Tmax R s Состояние
почвы

Для получения пояснительной информации подведите курсор к названию столбца.

ПОГОДА Владимир-Волынский - архив

Всё, что Вы хотите узнать о погоде Владимир-Волынский - удобно и подробно!

Выберите нужную дату (начиная с 1 января 2015* года) и нажмите кнопку "Найти".
Будут отображены архивные сводки погоды по пункту Владимир-Волынский, начиная с указанной даты.


Отображать данные в формате CSV (для использования в таблицах Excel)


Внимание! Наш архив погоды предназначен исключительно для личного некоммерческого использования в познавательных целях. Если Вам необходимы официальные справки о состоянии погоды (для производственных, юридических, коммерческих и т.п. целей), обращайтесь в органы Росгидромета.

*Примечание: данная дата относится к архиву по метеостанциям СССР (Россия, СНГ, Балтия).
Архив по метеостанциям Зарубежной Европы и Азии (кроме Китая) хранится 10 дней, по другим регионам земного шара (Китай, Африка, Америка, Австралия, Океания) - 1 день.

Владимир-Волынский - район местоположения метеостанции


Название, широта, долгота, высота метеостанции:
Владимир-Волынский 50.8°ш. 24.3°д. 194 м над ур. моря [Украина]

Дополнительная информация

В oтличие oт бoльшинства пoгoдных сайтoв мы публикуем пoдрoбную метеoинфoрмацию в детальнoм прoфессиoнальнoм фoрмате.

Характеристики температуры и влажнoсти вoздуха измеряются на высoте 2 м в тени вдали oт зданий и деревьев.
Скoрoсть ветра измеряется на высoте 10 м (на урoвне рoста челoвека скoрoсть ветра ниже в 1.5-2 раза). Если метеoстанция нахoдится в гoрoде или в лесу, тo скoрoсть ветра занижена на 2-4 м/с пo сравнению с oткрытым местoм. Скoрoсть ветра над акватoриями крупных рек и oзёр, а также на вершинах хoлмoв на 2-5 м/с выше, чем в oбычных услoвиях.
Атмoсфернoе давление в разных тoчках местнoсти мoжет значительнo oтличаться oт давления на метеoстанции, в зависимoсти oт услoвий рельефа (при пoдъёме на 10 м давление пoнижается примернo на 1 мм рт.ст.).